Kenora, Ontario

2:35 AM CDT on September 29, 2016 (GMT -0500)
Kenora

Weather History for CYQK - February, 2013

Change the Weather History Date:

Friday, February 8, 2013

  Actual Average Record
Temperature  
Mean Temperature 9 °F -  
Max Temperature 22 °F 15 °F 39 °F (1998)
Min Temperature -4 °F 0 °F -14 °F (2003)
Degree Days  
Heating Degree Days 56    
Moisture  
Dew Point 7 °F    
Average Humidity 80    
Maximum Humidity 92    
Minimum Humidity 66    
Precipitation  
Precipitation 0.00 in - - ()
Sea Level Pressure  
Sea Level Pressure 30.30 in    
Wind  
Wind Speed 8 mph ()    
Max Wind Speed 16 mph    
Max Gust Speed 17 mph    
Visibility 15.0 miles    
Events Snow    
Averages and records for this station are not official NWS values.
T = Trace of Precipitation, MM = Missing Value Source: Averaged Metar Reports

Daily Weather History Graph

Daily Weather History Graph

Search for Another Location

Airport or City:

Trip Planner

Search our weather history database for the weather conditions in past years. The results will help you decide how hot, cold, wet, or windy it might be!

Date:

Astronomy

Feb. 08, 2013 Rise Set
Actual Time 7:39 AM CST 5:24 PM CST
Civil Twilight 7:05 AM CST 5:58 PM CST
Nautical Twilight 6:27 AM CST 6:36 PM CST
Astronomical Twilight 5:49 AM CST 7:14 PM CST
Moon 6:13 AM CST (2/8) 3:56 PM CST (2/8)
Length of Visible Light 10h 53m
Length of Day
9h 45m
Waning Crescent, 3% of the Moon is Illuminated
Feb 8
Waning Crescent
Feb 10
New
Feb 17
First Quarter
Feb 25
Full
Mar 4
Last Quarter

Hourly Weather History & Observations

Time (CST) Temp. Windchill Dew Point Humidity Pressure Visibility Wind Dir Wind Speed Gust Speed Precip Events Conditions
12:00 AM 2 °F - -2 °F 77% 30.39 in 15 mi SE 6.9 mph - -  
12:00 AM 1.4 °F -11.3 °F -2.2 °F 85% 30.39 in 15.0 mi SE 6.9 mph - N/A   Clear
1:00 AM 1.4 °F -8.3 °F -0.4 °F 92% 30.40 in 15.0 mi SSE 4.6 mph - N/A   Partly Cloudy
2:00 AM 1.4 °F -11.3 °F -0.4 °F 92% 30.39 in 15.0 mi SSE 6.9 mph - N/A   Clear
3:00 AM 1.4 °F -11.3 °F -2.2 °F 85% 30.36 in 15.0 mi South 6.9 mph - N/A   Clear
4:00 AM 1.4 °F -11.3 °F -2.2 °F 85% 30.36 in 15.0 mi SSE 6.9 mph - N/A   Clear
5:00 AM 1.4 °F -12.5 °F -2.2 °F 85% 30.37 in 15.0 mi SSE 8.1 mph - N/A   Clear
6:00 AM 1 °F - -2 °F 82% 30.37 in 15 mi SSE 8.1 mph - -  
6:00 AM 1.4 °F -12.5 °F -2.2 °F 85% 30.37 in 15.0 mi SSE 8.1 mph - N/A   Clear
6:44 AM - - - N/A% - 15.0 mi SSE 4.6 mph - N/A   Scattered Clouds
7:00 AM 1.4 °F -13.5 °F -2.2 °F 85% 30.36 in 15.0 mi SSE 9.2 mph - N/A   Partly Cloudy
8:00 AM 1.4 °F -13.5 °F -2.2 °F 85% 30.36 in 15.0 mi South 9.2 mph - N/A   Partly Cloudy
9:00 AM 5.0 °F -9.1 °F 1.4 °F 85% 30.36 in 15.0 mi South 9.2 mph - N/A   Mostly Cloudy
10:00 AM 8.6 °F -6.3 °F 6.8 °F 92% 30.36 in 15.0 mi South 11.5 mph - N/A   Mostly Cloudy
11:00 AM 14.0 °F 2.0 °F 10.4 °F 86% 30.35 in 15.0 mi South 9.2 mph - N/A   Mostly Cloudy
12:00 PM 17 °F - 12 °F 72% 30.33 in 15 mi South 9.2 mph - - Snow Snow
12:00 PM 17.6 °F 6.4 °F 12.2 °F 79% 30.33 in 15.0 mi South 9.2 mph - N/A   Mostly Cloudy
1:00 PM 19.4 °F 7.9 °F 12.2 °F 74% 30.31 in 15.0 mi South 10.4 mph - N/A   Mostly Cloudy
2:00 PM 23.0 °F 13.1 °F 14.0 °F 68% 30.29 in 15.0 mi South 9.2 mph - N/A   Mostly Cloudy
3:00 PM 23.0 °F 11.7 °F 14.0 °F 68% 30.27 in 15.0 mi South 11.5 mph - N/A   Mostly Cloudy
4:00 PM 21.2 °F 10.9 °F 14.0 °F 74% 30.25 in 15.0 mi South 9.2 mph - N/A   Mostly Cloudy
5:00 PM 21.2 °F 12.6 °F 14.0 °F 74% 30.24 in 15.0 mi SSE 6.9 mph - N/A   Overcast
6:00 PM 21 °F - 15 °F 66% 30.22 in 15 mi SSE 10.4 mph - -   Partly Cloudy
6:00 PM 21.2 °F 10.1 °F 14.0 °F 74% 30.22 in 15.0 mi SSE 10.4 mph - N/A   Overcast
7:00 PM 19.4 °F 7.2 °F 14.0 °F 80% 30.20 in 15.0 mi SSE 11.5 mph - N/A   Mostly Cloudy
8:00 PM 19.4 °F 6.6 °F 14.0 °F 80% 30.19 in 15.0 mi South 12.7 mph - N/A   Mostly Cloudy
9:00 PM 19.4 °F 7.2 °F 14.0 °F 80% 30.18 in 15.0 mi South 11.5 mph 17.3 mph N/A   Mostly Cloudy
10:00 PM 19.4 °F 6.0 °F 14.0 °F 80% 30.16 in 15.0 mi SSE 13.8 mph - N/A   Overcast
11:00 PM 19.4 °F 5.0 °F 14.0 °F 80% 30.14 in 15.0 mi South 16.1 mph - N/A   Overcast